Regional Weather Roundup
Issued by NWS

Home | Current Version | Previous Version | Text Only | Print | Product List | Glossary Off
Versions: 1 2 3 4 5 6 7 8 9 10 11 12 13 14 15 16 17 18 19 20 21 22 23 24 25 26 27 28 29 30 31 32 33 34 35 36 37 38 39 40 41 42 43 44 45 46 47 48 49 50

000
ASUS45 KBOU 100507
RWRCO

WEATHER ROUNDUP FOR COLORADO
NATIONAL WEATHER SERVICE DENVER/BOULDER CO
1000 PM MST TUE FEB 09 2016

NOTE: "FAIR" INDICATES FEW OR NO CLOUDS BELOW 12000 FEET WITH NO
SIGNIFICANT WEATHER AND/OR OBSTRUCTIONS TO VISIBILITY.

COZ001>005-013-030-031-100600-
...NORTHWEST COLORADO...

CITY           SKY/WX    TMP DP  RH WIND       PRES   REMARKS
CRAIG          CLOUDY     5   1  83 CALM      30.48R
HAYDEN         CLOUDY    21  14  73 E12       30.46S WCI   9
MEEKER         CLOUDY    16  11  80 E3        30.47R
MOUNT WERNER   NOT AVBL
STEAMBOAT SPGS CLOUDY    16  14  90 CALM      30.48S
WALDEN         CLOUDY    10   3  72 SE8       30.45F WCI  -1
$$

COZ006>008-011-100600-
...WEST CENTRAL VALLEYS...

CITY           SKY/WX    TMP DP  RH WIND       PRES   REMARKS
GRAND JUNCTION CLOUDY    26  22  84 E6        30.46R WCI  19
MONTROSE       CLOUDY    24  17  74 SE8       30.50R WCI  15
EAGLE          CLEAR     18  12  79 CALM      30.53R
RIFLE          CLOUDY    23  15  71 SW3       30.49R
DELTA          CLOUDY    30  25  80 CALM      30.49S
NUCLA          CLOUDY    32  21  64 SE5       30.49S WCI  27
$$

COZ017>023-064>068-100600-
...SOUTHWEST COLORADO...

CITY           SKY/WX    TMP DP  RH WIND       PRES   REMARKS
DURANGO        CLOUDY    23  15  71 NE3       30.43R
CORTEZ         CLOUDY    25  20  81 NE9       30.41R WCI  15
PAGOSA SPRINGS CLOUDY    24  17  75 CALM      30.45R
TELLURIDE      CLOUDY    30  12  48 SE8       30.52S WCI  22
WOLF CREEK PAS CLOUDY    27  -4  26 NE18      30.57S WCI  13
$$

COZ009-010-012-014-032>034-037-058>063-100600-
...CENTRAL COLORADO...

CITY           SKY/WX    TMP DP  RH WIND       PRES   REMARKS
ASPEN          CLOUDY    23  14  68 SW7       30.48S WCI  15
BUENA VISTA    CLOUDY    32  11  42 W12       30.44R WCI  23
COPPER MTN     CLOUDY    27   0  31 W15       30.54S WCI  15
BERTHOUD PASS  FAIR      19   9  63 NW18      30.51F WCI   4
COTTONWOOD PAS CLOUDY    37  -4  17 W15G21    30.48R
GUNNISON       CLOUDY     0  -8  71 CALM      30.58R
KREMMLING      CLOUDY     1  -4  78 CALM      30.54S
LEADVILLE      CLOUDY    16   0  49 E5        30.49R WCI   9
MONARCH PASS   CLOUDY    27   0  31 W9        30.64S WCI  17
SALIDA         NOT AVBL
SUNLIGHT       CLOUDY    34   1  25 CALM        N/A
WILKERSON PASS CLOUDY    30  -6  21 N9G22     30.50F WCI  22
$$

COZ069>075-100600-
...SAN LUIS VALLEY/SANGRE DE CRISTO MOUNTAINS...

CITY           SKY/WX    TMP DP  RH WIND       PRES   REMARKS
ALAMOSA        CLOUDY    25  21  85 CALM      30.44S
LA VETA PASS   CLOUDY    28  12  50 MISG      30.47F
SAGUACHE       CLOUDY    25  18  74 N5        30.46S WCI  19
$$

COZ035-036-038>040-100600-
...NORTHERN COLORADO FRONT RANGE...

CITY           SKY/WX    TMP DP  RH WIND       PRES   REMARKS
DENVER INTL AP CLOUDY    40  20  44 SW17      30.25F
DMNS CITY PARK   N/A     38  19  46 SE9G15    30.26F
AURORA         CLEAR     36  20  53 S8        30.27F
FRONT RANGE AP NOT AVBL
ERIE MUNI ARPT CLOUDY    31  22  70 CALM      30.25S
BOULDER MUN AP CLOUDY    43  16  33 W6        30.24S
CENTENNIAL     CLOUDY    34  18  52 S5        30.28S WCI  30
BROOMFIELD     CLEAR     45  16  31 W8        30.27S
FORT COLLINS   CLOUDY    39  21  48 S3        30.24F
LONGMONT       CLOUDY    32  22  66 W3        30.26S
$$

COZ041-046-047-076>085-087-088-100600-
...PIKES PEAK/PALMER DIVIDE AND SOUTHERN FOOTHILLS...

CITY           SKY/WX    TMP DP  RH WIND       PRES   REMARKS
COLO. SPRINGS  CLOUDY    27  17  66 N8        30.33F WCI  19
A. F. ACADEMY  CLOUDY    24  16  70 N8        30.32F WCI  16
SCHRIEVER AFB  FAIR      35  18  50 W6        30.33F WCI  30
ELLICOTT       NOT AVBL
FALCON         NOT AVBL
FORT CARSON    CLOUDY    30  19  63 NW10      30.30F WCI  21
LIMON          CLOUDY    29  20  69 W10       30.27F WCI  20
MONUMENT HILL  CLOUDY    32  16  51 SW12      30.33F WCI  23
TRINIDAD       CLOUDY    39  18  42 SW14      30.34S
$$

COZ042>045-048>051-090-091-100600-
...NORTHEAST COLORADO...

CITY           SKY/WX    TMP DP  RH WIND       PRES   REMARKS
GREELEY ARPT   CLOUDY    30  27  86 NE5       30.24F WCI  25
AKRON          CLEAR     38  25  59 W15       30.21S
BURLINGTON     CLEAR     36  25  64 W15       30.22F
WRAY           CLEAR     36  29  78 W14       30.18F
STERLING       CLEAR     37  28  70 NW14      30.19S
HOLYOKE        CLEAR     43  30  61 W17G23    30.16S
FORT MORGAN    CLEAR     30  23  77 W9        30.23F WCI  21
$$

COZ086-089-092>099-100600-
...SOUTHEAST COLORADO...

CITY           SKY/WX    TMP DP  RH WIND       PRES   REMARKS
PUEBLO         CLOUDY    33  23  66 W7        30.29F WCI  27
LA JUNTA       CLEAR     38  25  59 W9        30.28F
LAMAR          CLEAR     28  25  88 SW7       30.26S WCI  21
SPRINGFIELD      N/A     29  23  78 SW6       30.30S WCI  23
$$



USA.gov is the U.S. government's official web portal to all federal, state and local government web resources and services.